Time,TemperatureF,DewpointF,PressureIn,WindDirection,WindDirectionDegrees,WindSpeedMPH,WindSpeedGustMPH,Humidity,HourlyPrecipIn,Conditions,Clouds,dailyrainin,SoftwareType,DateUTC
2013-06-14 00:02:00,56.0,-99.9,29.60,ENE,65,21.0,27.0,-999,-99.99,,,-99.99,,2013-06-14 04:02:00,
2013-06-14 00:12:00,56.0,-99.9,29.59,ENE,64,23.0,30.0,-999,-99.99,,,-99.99,,2013-06-14 04:12:00,
2013-06-14 00:23:00,56.0,-99.9,29.58,ENE,58,22.0,29.0,-999,-99.99,,,-99.99,,2013-06-14 04:23:00,
2013-06-14 00:33:00,56.0,-99.9,29.57,ENE,59,26.0,32.0,-999,-99.99,,,-99.99,,2013-06-14 04:33:00,
2013-06-14 00:43:00,56.0,-99.9,29.56,ENE,62,23.0,31.0,-999,-99.99,,,-99.99,,2013-06-14 04:43:00,
2013-06-14 00:53:00,56.0,-99.9,29.55,ENE,62,27.0,37.0,-999,-99.99,,,-99.99,,2013-06-14 04:53:00,
2013-06-14 01:02:00,56.0,-99.9,29.55,ENE,57,26.0,34.0,-999,-99.99,,,-99.99,,2013-06-14 05:02:00,
2013-06-14 01:12:00,56.0,-99.9,29.55,NE,56,22.0,35.0,-999,-99.99,,,-99.99,,2013-06-14 05:12:00,
2013-06-14 01:22:00,56.0,-99.9,29.55,ENE,59,20.0,33.0,-999,-99.99,,,-99.99,,2013-06-14 05:22:00,
2013-06-14 01:34:00,56.0,-99.9,29.57,ENE,60,26.0,32.0,-999,-99.99,,,-99.99,,2013-06-14 05:34:00,
2013-06-14 01:43:00,56.0,-99.9,29.56,ENE,58,22.0,32.0,-999,-99.99,,,-99.99,,2013-06-14 05:43:00,
2013-06-14 01:52:00,56.0,-99.9,29.56,ENE,63,26.0,33.0,-999,-99.99,,,-99.99,,2013-06-14 05:52:00,
2013-06-14 02:02:00,56.0,-99.9,29.56,ENE,63,22.0,29.0,-999,-99.99,,,-99.99,,2013-06-14 06:02:00,
2013-06-14 02:12:00,56.0,-99.9,29.55,ENE,65,23.0,31.0,-999,-99.99,,,-99.99,,2013-06-14 06:12:00,
2013-06-14 02:23:00,56.0,-99.9,29.55,ENE,65,23.0,31.0,-999,-99.99,,,-99.99,,2013-06-14 06:23:00,
2013-06-14 02:34:00,56.0,-99.9,29.55,ENE,72,23.0,31.0,-999,-99.99,,,-99.99,,2013-06-14 06:34:00,
2013-06-14 02:44:00,56.0,-99.9,29.54,ENE,69,21.0,30.0,-999,-99.99,,,-99.99,,2013-06-14 06:44:00,
2013-06-14 02:52:00,55.0,-99.9,29.53,ENE,67,24.0,32.0,-999,-99.99,,,-99.99,,2013-06-14 06:52:00,
2013-06-14 03:02:00,56.0,-99.9,29.53,ENE,66,24.0,29.0,-999,-99.99,,,-99.99,,2013-06-14 07:02:00,
2013-06-14 03:12:00,56.0,-99.9,29.53,ENE,66,23.0,33.0,-999,-99.99,,,-99.99,,2013-06-14 07:12:00,
2013-06-14 03:22:00,55.0,-99.9,29.53,ENE,65,26.0,31.0,-999,-99.99,,,-99.99,,2013-06-14 07:22:00,
2013-06-14 03:33:00,55.0,-99.9,29.53,NE,51,21.0,31.0,-999,-99.99,,,-99.99,,2013-06-14 07:33:00,
2013-06-14 03:44:00,55.0,-99.9,29.53,NE,48,20.0,28.0,-999,-99.99,,,-99.99,,2013-06-14 07:44:00,
2013-06-14 03:53:00,55.0,-99.9,29.53,NE,52,21.0,27.0,-999,-99.99,,,-99.99,,2013-06-14 07:53:00,
2013-06-14 04:02:00,55.0,-99.9,29.52,NE,46,21.0,34.0,-999,-99.99,,,-99.99,,2013-06-14 08:02:00,
2013-06-14 04:12:00,55.0,-99.9,29.52,NE,54,26.0,32.0,-999,-99.99,,,-99.99,,2013-06-14 08:12:00,
2013-06-14 04:23:00,55.0,-99.9,29.52,NE,54,26.0,32.0,-999,-99.99,,,-99.99,,2013-06-14 08:23:00,
2013-06-14 04:33:00,55.0,-99.9,29.52,ENE,57,24.0,33.0,-999,-99.99,,,-99.99,,2013-06-14 08:33:00,
2013-06-14 04:43:00,55.0,-99.9,29.50,ENE,58,27.0,38.0,-999,-99.99,,,-99.99,,2013-06-14 08:43:00,
2013-06-14 04:53:00,55.0,-99.9,29.51,ENE,59,26.0,36.0,-999,-99.99,,,-99.99,,2013-06-14 08:53:00,
2013-06-14 05:02:00,55.0,-99.9,29.51,ENE,59,26.0,34.0,-999,-99.99,,,-99.99,,2013-06-14 09:02:00,
2013-06-14 05:12:00,55.0,-99.9,29.53,NE,42,20.0,33.0,-999,-99.99,,,-99.99,,2013-06-14 09:12:00,
2013-06-14 05:22:00,55.0,-99.9,29.53,NE,42,20.0,33.0,-999,-99.99,,,-99.99,,2013-06-14 09:22:00,
2013-06-14 05:33:00,54.0,-99.9,29.53,NE,37,23.0,33.0,-999,-99.99,,,-99.99,,2013-06-14 09:33:00,
2013-06-14 05:43:00,55.0,-99.9,29.52,NE,37,22.0,30.0,-999,-99.99,,,-99.99,,2013-06-14 09:43:00,
2013-06-14 05:53:00,55.0,-99.9,29.53,NE,44,23.0,35.0,-999,-99.99,,,-99.99,,2013-06-14 09:53:00,
2013-06-14 06:02:00,55.0,-99.9,29.53,NE,44,23.0,35.0,-999,-99.99,,,-99.99,,2013-06-14 10:02:00,
2013-06-14 06:12:00,54.0,-99.9,29.54,NE,35,23.0,32.0,-999,-99.99,,,-99.99,,2013-06-14 10:12:00,
2013-06-14 06:22:00,54.0,-99.9,29.55,NE,35,22.0,31.0,-999,-99.99,,,-99.99,,2013-06-14 10:22:00,
2013-06-14 06:34:00,54.0,-99.9,29.55,NE,37,26.0,32.0,-999,-99.99,,,-99.99,,2013-06-14 10:34:00,
2013-06-14 06:44:00,54.0,-99.9,29.55,NE,35,22.0,31.0,-999,-99.99,,,-99.99,,2013-06-14 10:44:00,
2013-06-14 06:53:00,54.0,-99.9,29.54,NE,35,25.0,38.0,-999,-99.99,,,-99.99,,2013-06-14 10:53:00,
2013-06-14 07:02:00,54.0,-99.9,29.54,NE,35,25.0,38.0,-999,-99.99,,,-99.99,,2013-06-14 11:02:00,
2013-06-14 07:11:00,54.0,-99.9,29.55,NE,36,27.0,37.0,-999,-99.99,,,-99.99,,2013-06-14 11:11:00,
2013-06-14 07:23:00,55.0,-99.9,29.55,NE,35,26.0,34.0,-999,-99.99,,,-99.99,,2013-06-14 11:23:00,
2013-06-14 07:33:00,54.0,-99.9,29.55,NE,36,25.0,33.0,-999,-99.99,,,-99.99,,2013-06-14 11:33:00,
2013-06-14 07:43:00,54.0,-99.9,29.55,NE,36,24.0,36.0,-999,-99.99,,,-99.99,,2013-06-14 11:43:00,
2013-06-14 07:52:00,54.0,-99.9,29.57,NNE,29,19.0,28.0,-999,-99.99,,,-99.99,,2013-06-14 11:52:00,
2013-06-14 08:02:00,55.0,-99.9,29.58,NNE,30,16.0,31.0,-999,-99.99,,,-99.99,,2013-06-14 12:02:00,
2013-06-14 08:12:00,55.0,-99.9,29.57,NNE,29,21.0,33.0,-999,-99.99,,,-99.99,,2013-06-14 12:12:00,
2013-06-14 08:23:00,54.0,-99.9,29.58,NE,34,25.0,32.0,-999,-99.99,,,-99.99,,2013-06-14 12:23:00,
2013-06-14 08:33:00,54.0,-99.9,29.59,NNE,32,25.0,36.0,-999,-99.99,,,-99.99,,2013-06-14 12:33:00,
2013-06-14 08:44:00,54.0,-99.9,29.59,NNE,33,22.0,33.0,-999,-99.99,,,-99.99,,2013-06-14 12:44:00,
2013-06-14 08:53:00,54.0,-99.9,29.59,NE,37,23.0,36.0,-999,-99.99,,,-99.99,,2013-06-14 12:53:00,
2013-06-14 09:02:00,54.0,-99.9,29.59,NE,37,23.0,36.0,-999,-99.99,,,-99.99,,2013-06-14 13:02:00,
2013-06-14 09:12:00,54.0,-99.9,29.60,NNE,32,22.0,36.0,-999,-99.99,,,-99.99,,2013-06-14 13:12:00,
2013-06-14 09:22:00,55.0,-99.9,29.60,NNE,29,16.0,30.0,-999,-99.99,,,-99.99,,2013-06-14 13:22:00,
2013-06-14 09:33:00,55.0,-99.9,29.60,NNE,29,16.0,30.0,-999,-99.99,,,-99.99,,2013-06-14 13:33:00,
2013-06-14 09:43:00,54.0,-99.9,29.60,NNE,33,22.0,34.0,-999,-99.99,,,-99.99,,2013-06-14 13:43:00,
2013-06-14 09:53:00,54.0,-99.9,29.60,NE,36,27.0,37.0,-999,-99.99,,,-99.99,,2013-06-14 13:53:00,
2013-06-14 10:02:00,54.0,-99.9,29.59,NE,35,25.0,35.0,-999,-99.99,,,-99.99,,2013-06-14 14:02:00,
2013-06-14 10:12:00,54.0,-99.9,29.59,NE,34,21.0,30.0,-999,-99.99,,,-99.99,,2013-06-14 14:12:00,
2013-06-14 10:22:00,54.0,-99.9,29.59,NE,39,23.0,36.0,-999,-99.99,,,-99.99,,2013-06-14 14:22:00,
2013-06-14 10:34:00,54.0,-99.9,29.60,NE,35,23.0,35.0,-999,-99.99,,,-99.99,,2013-06-14 14:34:00,
2013-06-14 10:43:00,54.0,-99.9,29.60,NNE,33,23.0,32.0,-999,-99.99,,,-99.99,,2013-06-14 14:43:00,
2013-06-14 10:52:00,53.0,-99.9,29.60,NE,34,26.0,34.0,-999,-99.99,,,-99.99,,2013-06-14 14:52:00,
2013-06-14 11:02:00,53.0,-99.9,29.61,NE,37,26.0,39.0,-999,-99.99,,,-99.99,,2013-06-14 15:02:00,
2013-06-14 11:12:00,54.0,-99.9,29.61,NE,36,26.0,39.0,-999,-99.99,,,-99.99,,2013-06-14 15:12:00,
2013-06-14 11:23:00,54.0,-99.9,29.62,NE,34,24.0,37.0,-999,-99.99,,,-99.99,,2013-06-14 15:23:00,
2013-06-14 11:34:00,54.0,-99.9,29.62,NNE,32,20.0,32.0,-999,-99.99,,,-99.99,,2013-06-14 15:34:00,
2013-06-14 11:44:00,54.0,-99.9,29.62,NNE,32,20.0,32.0,-999,-99.99,,,-99.99,,2013-06-14 15:44:00,
2013-06-14 12:11:00,55.0,-99.9,29.62,NNE,33,21.0,38.0,-999,-99.99,,,-99.99,,2013-06-14 16:11:00,
2013-06-14 12:23:00,55.0,-99.9,29.63,NNE,33,20.0,32.0,-999,-99.99,,,-99.99,,2013-06-14 16:23:00,
2013-06-14 12:33:00,55.0,-99.9,29.64,NNE,33,23.0,32.0,-999,-99.99,,,-99.99,,2013-06-14 16:33:00,
2013-06-14 12:43:00,55.0,-99.9,29.64,NE,37,20.0,33.0,-999,-99.99,,,-99.99,,2013-06-14 16:43:00,
2013-06-14 12:53:00,55.0,-99.9,29.64,NNE,29,19.0,32.0,-999,-99.99,,,-99.99,,2013-06-14 16:53:00,
2013-06-14 13:02:00,55.0,-99.9,29.65,NNE,30,21.0,29.0,-999,-99.99,,,-99.99,,2013-06-14 17:02:00,
2013-06-14 13:12:00,56.0,-99.9,29.65,NNE,31,18.0,28.0,-999,-99.99,,,-99.99,,2013-06-14 17:12:00,
2013-06-14 13:23:00,56.0,-99.9,29.66,NNE,20,16.0,27.0,-999,-99.99,,,-99.99,,2013-06-14 17:23:00,
2013-06-14 13:34:00,56.0,-99.9,29.67,NNE,20,15.0,27.0,-999,-99.99,,,-99.99,,2013-06-14 17:34:00,
2013-06-14 13:43:00,56.0,-99.9,29.67,NNE,19,13.0,23.0,-999,-99.99,,,-99.99,,2013-06-14 17:43:00,
2013-06-14 13:54:00,56.0,-99.9,29.67,NNE,14,15.0,24.0,-999,-99.99,,,-99.99,,2013-06-14 17:54:00,
2013-06-14 14:02:00,56.0,-99.9,29.67,NNE,18,15.0,30.0,-999,-99.99,,,-99.99,,2013-06-14 18:02:00,
2013-06-14 14:12:00,56.0,-99.9,29.67,NNE,18,15.0,30.0,-999,-99.99,,,-99.99,,2013-06-14 18:12:00,
2013-06-14 14:22:00,57.0,-99.9,29.67,NNE,17,17.0,25.0,-999,-99.99,,,-99.99,,2013-06-14 18:22:00,
2013-06-14 14:33:00,57.0,-99.9,29.67,NNE,15,15.0,29.0,-999,-99.99,,,-99.99,,2013-06-14 18:33:00,
2013-06-14 14:43:00,57.0,-99.9,29.67,NNE,17,17.0,24.0,-999,-99.99,,,-99.99,,2013-06-14 18:43:00,
2013-06-14 14:52:00,58.0,-99.9,29.67,NNE,21,14.0,26.0,-999,-99.99,,,-99.99,,2013-06-14 18:52:00,
2013-06-14 15:02:00,57.0,-99.9,29.67,NNE,23,14.0,28.0,-999,-99.99,,,-99.99,,2013-06-14 19:02:00,
2013-06-14 15:11:00,57.0,-99.9,29.67,NNE,16,16.0,22.0,-999,-99.99,,,-99.99,,2013-06-14 19:11:00,
2013-06-14 15:22:00,58.0,-99.9,29.67,NNE,15,14.0,24.0,-999,-99.99,,,-99.99,,2013-06-14 19:22:00,
2013-06-14 15:33:00,58.0,-99.9,29.67,NNE,17,15.0,26.0,-999,-99.99,,,-99.99,,2013-06-14 19:33:00,
2013-06-14 15:43:00,57.0,-99.9,29.68,NNE,12,16.0,24.0,-999,-99.99,,,-99.99,,2013-06-14 19:43:00,
2013-06-14 15:53:00,58.0,-99.9,29.69,North,11,20.0,27.0,-999,-99.99,,,-99.99,,2013-06-14 19:53:00,
2013-06-14 16:02:00,58.0,-99.9,29.69,North,8,17.0,27.0,-999,-99.99,,,-99.99,,2013-06-14 20:02:00,
2013-06-14 16:11:00,58.0,-99.9,29.69,North,10,19.0,25.0,-999,-99.99,,,-99.99,,2013-06-14 20:11:00,
2013-06-14 16:22:00,58.0,-99.9,29.69,North,10,19.0,25.0,-999,-99.99,,,-99.99,,2013-06-14 20:22:00,
2013-06-14 16:33:00,58.0,-99.9,29.70,NNE,13,18.0,27.0,-999,-99.99,,,-99.99,,2013-06-14 20:33:00,
2013-06-14 16:43:00,58.0,-99.9,29.70,North,11,15.0,23.0,-999,-99.99,,,-99.99,,2013-06-14 20:43:00,
2013-06-14 16:53:00,58.0,-99.9,29.70,NNE,15,15.0,23.0,-999,-99.99,,,-99.99,,2013-06-14 20:53:00,
2013-06-14 17:02:00,58.0,-99.9,29.70,NNE,15,15.0,23.0,-999,-99.99,,,-99.99,,2013-06-14 21:02:00,
2013-06-14 17:12:00,59.0,-99.9,29.70,NNE,12,17.0,23.0,-999,-99.99,,,-99.99,,2013-06-14 21:12:00,
2013-06-14 17:22:00,59.0,-99.9,29.70,NNE,12,17.0,23.0,-999,-99.99,,,-99.99,,2013-06-14 21:22:00,
2013-06-14 17:34:00,60.0,-99.9,29.71,North,9,13.0,22.0,-999,-99.99,,,-99.99,,2013-06-14 21:34:00,
2013-06-14 17:43:00,60.0,-99.9,29.71,North,5,10.0,17.0,-999,-99.99,,,-99.99,,2013-06-14 21:43:00,
2013-06-14 17:52:00,60.0,-99.9,29.72,North,6,11.0,16.0,-999,-99.99,,,-99.99,,2013-06-14 21:52:00,
2013-06-14 18:02:00,60.0,-99.9,29.72,North,5,10.0,14.0,-999,-99.99,,,-99.99,,2013-06-14 22:02:00,
2013-06-14 18:12:00,59.0,-99.9,29.72,North,7,11.0,15.0,-999,-99.99,,,-99.99,,2013-06-14 22:12:00,
2013-06-14 18:22:00,59.0,-99.9,29.72,North,3,9.0,13.0,-999,-99.99,,,-99.99,,2013-06-14 22:22:00,
2013-06-14 18:33:00,59.0,-99.9,29.72,North,6,10.0,15.0,-999,-99.99,,,-99.99,,2013-06-14 22:33:00,
2013-06-14 18:43:00,59.0,-99.9,29.72,North,1,7.0,13.0,-999,-99.99,,,-99.99,,2013-06-14 22:43:00,
2013-06-14 18:53:00,59.0,-99.9,29.72,North,358,7.0,13.0,-999,-99.99,,,-99.99,,2013-06-14 22:53:00,
2013-06-14 19:02:00,59.0,-99.9,29.72,North,-999,8.0,10.0,-999,-99.99,,,-99.99,,2013-06-14 23:02:00,
2013-06-14 19:12:00,59.0,-99.9,29.72,North,356,5.0,11.0,-999,-99.99,,,-99.99,,2013-06-14 23:12:00,
2013-06-14 19:22:00,59.0,-99.9,29.72,North,356,5.0,11.0,-999,-99.99,,,-99.99,,2013-06-14 23:22:00,
2013-06-14 19:33:00,59.0,-99.9,29.73,NNW,340,6.0,9.0,-999,-99.99,,,-99.99,,2013-06-14 23:33:00,
2013-06-14 19:43:00,59.0,-99.9,29.73,NNW,337,5.0,8.0,-999,-99.99,,,-99.99,,2013-06-14 23:43:00,
2013-06-14 19:52:00,59.0,-99.9,29.73,NNW,337,5.0,8.0,-999,-99.99,,,-99.99,,2013-06-14 23:52:00,
2013-06-14 20:12:00,60.0,-99.9,29.73,NW,308,2.0,4.0,-999,-99.99,,,-99.99,,2013-06-15 00:12:00,
2013-06-14 20:23:00,59.0,-99.9,29.73,WNW,294,3.0,5.0,-999,-99.99,,,-99.99,,2013-06-15 00:23:00,
2013-06-14 20:34:00,59.0,-99.9,29.73,WNW,294,3.0,5.0,-999,-99.99,,,-99.99,,2013-06-15 00:34:00,
2013-06-14 20:43:00,59.0,-99.9,29.74,WNW,299,3.0,5.0,-999,-99.99,,,-99.99,,2013-06-15 00:43:00,
2013-06-14 20:53:00,59.0,-99.9,29.74,WNW,296,4.0,6.0,-999,-99.99,,,-99.99,,2013-06-15 00:53:00,
2013-06-14 21:02:00,58.0,-99.9,29.74,West,274,2.0,5.0,-999,-99.99,,,-99.99,,2013-06-15 01:02:00,
2013-06-14 21:12:00,58.0,-99.9,29.74,West,274,3.0,5.0,-999,-99.99,,,-99.99,,2013-06-15 01:12:00,
2013-06-14 21:22:00,58.0,-99.9,29.75,West,275,4.0,5.0,-999,-99.99,,,-99.99,,2013-06-15 01:22:00,
2013-06-14 21:33:00,58.0,-99.9,29.75,West,274,4.0,6.0,-999,-99.99,,,-99.99,,2013-06-15 01:33:00,
2013-06-14 21:43:00,57.0,-99.9,29.75,West,272,5.0,6.0,-999,-99.99,,,-99.99,,2013-06-15 01:43:00,
2013-06-14 21:54:00,58.0,-99.9,29.75,West,276,3.0,8.0,-999,-99.99,,,-99.99,,2013-06-15 01:54:00,
2013-06-14 22:02:00,57.0,-99.9,29.76,WSW,252,2.0,6.0,-999,-99.99,,,-99.99,,2013-06-15 02:02:00,
2013-06-14 22:12:00,57.0,-99.9,29.76,WSW,249,3.0,6.0,-999,-99.99,,,-99.99,,2013-06-15 02:12:00,
2013-06-14 22:23:00,57.0,-99.9,29.76,WSW,249,3.0,6.0,-999,-99.99,,,-99.99,,2013-06-15 02:23:00,
2013-06-14 22:34:00,57.0,-99.9,29.77,SW,234,2.0,4.0,-999,-99.99,,,-99.99,,2013-06-15 02:34:00,
2013-06-14 22:43:00,57.0,-99.9,29.77,WSW,243,2.0,4.0,-999,-99.99,,,-99.99,,2013-06-15 02:43:00,
2013-06-14 22:53:00,57.0,-99.9,29.76,WSW,239,3.0,4.0,-999,-99.99,,,-99.99,,2013-06-15 02:53:00,
2013-06-14 23:02:00,57.0,-99.9,29.75,WSW,241,3.0,6.0,-999,-99.99,,,-99.99,,2013-06-15 03:02:00,
2013-06-14 23:11:00,57.0,-99.9,29.75,WSW,241,3.0,6.0,-999,-99.99,,,-99.99,,2013-06-15 03:11:00,
2013-06-14 23:24:00,57.0,-99.9,29.75,WSW,246,3.0,6.0,-999,-99.99,,,-99.99,,2013-06-15 03:24:00,
2013-06-14 23:33:00,57.0,-99.9,29.75,WSW,240,3.0,4.0,-999,-99.99,,,-99.99,,2013-06-15 03:33:00,
2013-06-14 23:44:00,57.0,-99.9,29.75,WSW,242,2.0,4.0,-999,-99.99,,,-99.99,,2013-06-15 03:44:00,
2013-06-14 23:53:00,57.0,-99.9,29.75,WSW,237,4.0,5.0,-999,-99.99,,,-99.99,,2013-06-15 03:53:00,